Starlink 11545

operational
NORAD ID: 63016 Int'l Des: 2025-032 Owner: SPXS Country: US Constellation: starlink
LEOCIRCULAR

Starlink 11545について

説明を読み込み中...

リアルタイム位置

3D地球を読み込み中...

次回通過

高度履歴

Altitude vs Time

uPlot chart will show altitude changes over time

軌道要素

1 63016U 25032M 25351.84737767 .00299256 00000-0 22182-2 0 9993
2 63016 42.9992 328.5221 0002350 242.7340 117.3289 15.71207150 49359
Epoch: Dec 17, 2025 • Age: 11 hours

現在のステータス

高度 353.5 km
速度 7.70 km/s
衛星直下点 12.42°N, 70.6°W
打ち上げ日 Feb 15, 2025
運用期間 0.8 years
タイプ internet

技術仕様

分類 Payload
質量 960.00 kg
乾燥質量 910.00 kg
総質量 960.00 kg
長さ 0.30 m
直径 4.10 m
スパン 29.00 m
形状 Box + pan
製造者 SPXS
バスタイプ Starlink V2MD
フェーズステータス In Orbit
所有者/国 SPXS/US

大規模コンステレーション

Loading constellations...